[[{"header":{"parameterUnit":"m.s-1","parameterCategory":1,"la1":30.2991,"la2":30.254,"lo1":-89.0895,"lo2":-89.0444,"dy":0.0017,"dx":0.0017,"nx":28,"ny":28,"refTime":"2023-04-08T21:00:00:Z","depth":0,"parameterNumber":2,"parameterNumberName":"U-component_of_WINDS"},"data":[0,0,0,0,0,0,0,0,0,0,0,0,0,0,0,0,0,0,0,0,0,0,0,0,0,0,0,0,0,0,0,0,0,0,0,0,0,0,0,0,0,0,0,0,0,0,0,0,0,0,0,0,0,0,0,0,0,0,-6.0873,-6.0875,0,-6.099,-6.0991,-6.0992,-6.0905,-6.0901,-6.0897,-6.0893,-6.1011,-6.1018,-6.1025,0,0,0,0,0,0,0,0,0,0,0,0,0,-6.0573,-6.0579,-6.0873,-6.0875,-6.0876,-6.0989,-6.0991,-6.0993,-6.0905,-6.0901,-6.0896,-6.0892,-6.1009,-6.1017,-6.1025,0,0,0,0,0,0,0,0,0,0,0,0,0,-6.0698,-6.0581,-6.0873,-6.0846,-6.0845,-6.0989,-6.0991,-6.0993,-6.0906,-6.0901,-6.0895,-6.0889,-6.1007,-6.1016,-6.1026,-6.1202,0,0,-6.1057,-6.1061,0,0,0,0,0,0,0,0,-6.0691,-6.0709,-6.0849,-6.0849,-6.0847,-6.0927,-6.0928,-6.1063,-6.0908,-6.0883,-6.0893,-6.0887,-6.0988,-6.0999,-6.1033,-6.1208,-6.1213,-6.1058,-6.1064,-6.1068,-6.1071,0,0,0,0,0,0,0,-6.0682,-6.0704,-6.0919,-6.0851,-6.085,-6.0828,-6.0839,-6.0953,-6.0966,-6.0885,-6.0879,-6.0894,-6.0986,-6.1024,-6.1035,-6.1215,-6.1057,-6.1066,-6.1073,-6.1077,-6.1537,-6.1543,0,0,0,0,0,0,-6.0677,-6.0697,-6.0916,-6.0923,-6.0754,-6.0838,-6.085,-6.0907,-6.0965,-6.0968,-6.0898,-6.0889,-6.101,-6.1024,-6.1039,-6.1247,-6.1068,-6.1077,-6.1083,-6.1531,-6.1538,-6.1545,0,0,0,0,0,0,-6.0671,-6.0697,-6.0911,-6.0808,-6.0834,-6.0849,-6.0913,-6.0912,-6.095,-6.0975,-6.0976,-6.0935,-6.1006,-6.1025,-6.1162,-6.125,-6.1082,-6.1091,-6.1524,-6.1533,-6.1542,-6.1667,0,0,0,0,0,0,-6.0662,-6.0695,-6.0763,-6.081,-6.084,-6.1033,-6.0919,-6.0919,-6.0967,-6.0956,-6.1009,-6.1013,-6.1003,-6.1147,-6.1172,-6.1261,-6.1099,-6.1516,-6.1528,-6.1539,-6.1655,-6.1679,-6.17,0,0,0,0,0,-6.0652,-6.0794,-6.0767,-6.0794,-6.0925,-6.1038,-6.1055,-6.1041,-6.0975,-6.1043,-6.1058,-6.1011,-6.1237,-6.1162,-6.1189,-6.1283,-6.151,-6.1524,-6.1538,-6.1645,-6.1674,-6.17,0,0,0,0,0,0,-6.0757,-6.08,-6.077,-6.0932,-6.0982,-6.1023,-6.1108,-6.1073,-6.1142,-6.1129,-6.1108,-6.1121,-6.1264,-6.1287,-6.1203,-6.1455,-6.1363,-6.1383,-6.1435,-6.1463,-6.1485,-6.1477,-6.1107,0,0,0,0,0,-6.0799,-6.0888,-6.092,-6.106,-6.1087,-6.1094,-6.1142,-6.1127,-6.1178,-6.1198,-6.1224,-6.1275,-6.1357,-6.1411,-6.1488,-6.1658,-6.1667,-6.1735,-6.1758,-6.1776,-6.1794,-6.1883,-6.1913,-6.1591,-6.1591,-6.1591,0,0,-6.0887,-6.0921,-6.0979,-6.1082,-6.1119,-6.121,-6.1112,-6.1213,-6.1281,-6.1214,-6.1344,-6.1365,-6.142,-6.1573,-6.1642,-6.1596,-6.1884,-6.1794,-6.1809,-6.1816,-6.19,-6.193,-6.1958,-6.1601,-6.1599,-6.1597,0,0,-6.1093,-6.1129,-6.1248,-6.1287,-6.1344,-6.1347,-6.1376,-6.1422,-6.1433,-6.1564,-6.1514,-6.1594,-6.1736,-6.1777,-6.1816,-6.2036,-6.1994,-6.2062,-6.218,-6.2267,-6.2292,-6.2315,-6.2391,-6.2419,-6.2079,-6.2079,-6.208,0,-6.1195,-6.1331,-6.1314,-6.1419,-6.1465,-6.1408,-6.1527,-6.1566,-6.1645,-6.1678,-6.1626,-6.1802,-6.1835,-6.1996,-6.205,-6.2084,-6.2115,-6.2055,-6.229,-6.2312,-6.2333,-6.2406,-6.2435,-6.2087,-6.2086,-6.2085,-6.2085,0,-6.1452,-6.1548,-6.1637,-6.1715,-6.1771,-6.1883,-6.1881,-6.194,-6.1919,-6.1928,-6.206,-6.2098,-6.2181,-6.2218,-6.2199,-6.2376,-6.2346,-6.2293,-6.22,-6.2372,-6.244,-6.2468,-6.2098,-6.2095,-6.2093,-6.2091,0,0,-6.1729,-6.1794,-6.1827,-6.186,-6.1918,-6.1991,-6.21,-6.2181,-6.2231,-6.2287,-6.2376,-6.2498,-6.2448,-6.2493,-6.2478,-6.2555,-6.2724,-6.2492,-6.2492,-6.2532,-6.2919,-6.2958,-6.2991,-6.2697,-6.2702,-6.2707,-6.2914,0,-6.1936,-6.2126,-6.2112,-6.229,-6.2377,-6.2323,-6.2417,-6.2463,-6.2473,-6.2548,-6.2559,-6.2644,-6.2574,-6.26,-6.2673,-6.2688,-6.2801,-6.2673,-6.2779,-6.2783,-6.2765,-6.3026,-6.3068,-6.3262,-6.2941,-6.2945,-6.2948,0,-6.2204,-6.2269,-6.2456,-6.2499,-6.2535,-6.262,-6.2691,-6.2764,-6.2813,-6.2815,-6.2865,-6.2837,-6.2945,-6.285,-6.2997,-6.291,-6.2952,-6.2966,-6.2973,-6.2982,-6.2875,-6.304,-6.3324,-6.3352,-6.299,-6.2987,-6.2984,0,-6.2385,-6.2519,-6.2647,-6.2678,-6.2732,-6.2792,-6.2818,-6.2861,-6.291,-6.2973,-6.3004,-6.3079,-6.312,-6.3178,-6.317,-6.3102,-6.332,-6.3225,-6.3323,-6.3324,-6.3371,-6.3368,-6.3664,-6.3401,-6.3401,-6.34,-6.3399,0,-6.2617,-6.2733,-6.2729,-6.2808,-6.2935,-6.2918,-6.3045,-6.3063,-6.3102,-6.3182,-6.3141,-6.3217,-6.3203,-6.3279,-6.3274,-6.3396,-6.3415,-6.3419,-6.3416,-6.3422,-6.3421,-6.3449,-6.3434,-6.3408,-6.3406,-6.3404,-6.3403,0,-6.284,-6.2842,-6.2978,-6.3018,-6.303,-6.3123,-6.3156,-6.323,-6.3236,-6.3339,-6.3362,-6.3372,-6.3459,-6.3457,-6.3557,-6.3553,-6.3702,-6.3684,-6.3686,-6.3681,-6.378,-6.377,-6.4102,-6.4144,-6.3856,-6.3858,-6.3861,0,-6.2988,-6.3076,-6.3124,-6.3175,-6.3204,-6.3287,-6.3336,-6.3323,-6.3375,-6.3437,-6.3504,-6.3587,-6.3652,-6.3794,-6.381,-6.3885,-6.3868,-6.3979,-6.3879,-6.3882,-6.3868,-6.3862,-6.387,-6.3998,-6.4002,-6.4004,-6.4006,0,-6.3249,-6.3245,-6.3318,-6.3392,-6.3452,-6.3509,-6.3561,-6.3605,-6.3596,-6.3658,-6.3746,-6.3797,-6.3898,-6.3981,-6.4053,-6.4077,-6.4041,-6.4038,-6.4064,-6.4071,-6.4067,-6.4069,-6.3738,-6.403,-6.4028,-6.4026,-6.4025,-6.4024,-6.3438,-6.3512,-6.3558,-6.364,-6.3678,-6.3727,-6.3798,-6.3813,-6.3887,-6.3967,-6.3955,-6.4053,-6.4098,-6.4191,-6.4223,-6.4299,-6.4259,-6.4298,-6.4308,-6.4317,-6.4327,-6.4056,-6.4312,-6.4311,-6.4311,-6.431,-6.431,0,-6.3695,-6.3722,-6.3797,-6.3871,-6.3936,-6.3896,-6.3951,-6.4007,-6.4094,-6.414,-6.4205,-6.4306,-6.4385,-6.4407,-6.4484,-6.454,-6.4525,-6.456,-6.4555,-6.4561,-6.4359,-6.4328,-6.4571,-6.4571,-6.4571,-6.4571,-6.4571,-6.4571,-6.3837,-6.396,-6.3962,-6.4103,-6.4128,-6.4224,-6.4259,-6.4304,-6.434,-6.4454,-6.452,-6.4534,-6.4569,-6.4648,-6.4718,-6.4723,-6.4752,-6.4794,-6.4792,-6.4602,-6.4576,-6.4551,-6.4521,-6.4801,-6.4801,-6.4987,-6.4989,-6.499]},{"header":{"parameterUnit":"m.s-1","parameterCategory":1,"la1":30.2991,"la2":30.254,"lo1":-89.0895,"lo2":-89.0444,"dy":0.0017,"dx":0.0017,"nx":28,"ny":28,"refTime":"2023-04-08T21:00:00:Z","depth":0,"parameterNumber":3,"parameterNumberName":"V-component_of_WINDS"},"data":[0,0,0,0,0,0,0,0,0,0,0,0,0,0,0,0,0,0,0,0,0,0,0,0,0,0,0,0,0,0,0,0,0,0,0,0,0,0,0,0,0,0,0,0,0,0,0,0,0,0,0,0,0,0,0,0,0,0,-3.1589,-3.1589,0,-3.1578,-3.1578,-3.1578,-3.1516,-3.1515,-3.1513,-3.1512,-3.1501,-3.1502,-3.1503,0,0,0,0,0,0,0,0,0,0,0,0,0,-3.1554,-3.1555,-3.1589,-3.1589,-3.1589,-3.1578,-3.1578,-3.1578,-3.1516,-3.1514,-3.1513,-3.1511,-3.1501,-3.1502,-3.1504,0,0,0,0,0,0,0,0,0,0,0,0,0,-3.1559,-3.1555,-3.1589,-3.1557,-3.1554,-3.1578,-3.1578,-3.1578,-3.1517,-3.1514,-3.1512,-3.151,-3.15,-3.1502,-3.1504,-3.1559,0,0,-3.1509,-3.151,0,0,0,0,0,0,0,0,-3.1559,-3.156,-3.1561,-3.1559,-3.1556,-3.1546,-3.1562,-3.1572,-3.1517,-3.1531,-3.1512,-3.1509,-3.1518,-3.1518,-3.1521,-3.1558,-3.1558,-3.1509,-3.151,-3.1511,-3.1511,0,0,0,0,0,0,0,-3.1558,-3.156,-3.1585,-3.1562,-3.1558,-3.1542,-3.154,-3.1563,-3.1537,-3.1529,-3.1525,-3.1524,-3.1516,-3.152,-3.152,-3.1558,-3.1509,-3.151,-3.1511,-3.1512,-3.1637,-3.1639,0,0,0,0,0,0,-3.1563,-3.156,-3.1585,-3.1584,-3.1552,-3.1544,-3.1542,-3.1551,-3.1537,-3.1532,-3.1526,-3.1522,-3.1518,-3.1518,-3.152,-3.1582,-3.1511,-3.1512,-3.1513,-3.1635,-3.1637,-3.164,0,0,0,0,0,0,-3.1562,-3.1565,-3.1585,-3.1571,-3.1572,-3.1547,-3.1558,-3.1552,-3.1556,-3.1534,-3.1529,-3.1535,-3.1516,-3.1517,-3.1549,-3.158,-3.1513,-3.1515,-3.1632,-3.1635,-3.1639,-3.1707,0,0,0,0,0,0,-3.1561,-3.1566,-3.1587,-3.1572,-3.1573,-3.1616,-3.156,-3.1554,-3.1559,-3.1553,-3.1541,-3.1537,-3.1514,-3.1547,-3.1551,-3.1582,-3.1516,-3.1629,-3.1633,-3.1638,-3.1702,-3.1713,-3.1722,0,0,0,0,0,-3.156,-3.1608,-3.1589,-3.1592,-3.16,-3.1618,-3.1618,-3.1591,-3.1562,-3.1583,-3.1568,-3.1537,-3.1576,-3.1551,-3.1554,-3.1586,-3.1627,-3.1632,-3.1637,-3.1698,-3.1711,-3.1721,0,0,0,0,0,0,-3.1628,-3.1605,-3.1584,-3.1628,-3.1625,-3.1607,-3.1633,-3.1606,-3.1612,-3.1606,-3.1572,-3.157,-3.1606,-3.1599,-3.1571,-3.1637,-3.1596,-3.1602,-3.1641,-3.1653,-3.1662,-3.1663,-3.1517,0,0,0,0,0,-3.1648,-3.1664,-3.1643,-3.1684,-3.1684,-3.1659,-3.1665,-3.1644,-3.164,-3.1639,-3.1627,-3.1624,-3.1635,-3.1644,-3.1653,-3.17,-3.1696,-3.1724,-3.1734,-3.1742,-3.1748,-3.177,-3.1782,-3.1657,-3.1657,-3.1657,0,0,-3.1689,-3.1679,-3.1692,-3.1697,-3.1693,-3.171,-3.1658,-3.1679,-3.1691,-3.1642,-3.1671,-3.1662,-3.1656,-3.1695,-3.1712,-3.1691,-3.1781,-3.1749,-3.1755,-3.1757,-3.1777,-3.1788,-3.1799,-3.166,-3.166,-3.1659,0,0,-3.1774,-3.1768,-3.18,-3.1796,-3.1789,-3.1772,-3.1779,-3.1765,-3.1757,-3.1785,-3.1747,-3.1761,-3.1782,-3.1778,-3.178,-3.1859,-3.1831,-3.1863,-3.1915,-3.1937,-3.1947,-3.1955,-3.1982,-3.1993,-3.1869,-3.1869,-3.1869,0,-3.1826,-3.1851,-3.182,-3.1843,-3.1845,-3.18,-3.1832,-3.1829,-3.1827,-3.1829,-3.1805,-3.1828,-3.1821,-3.1858,-3.1877,-3.188,-3.1887,-3.1865,-3.1948,-3.1956,-3.1963,-3.1989,-3.1999,-3.1873,-3.1873,-3.1872,-3.1872,0,-3.1915,-3.1933,-3.1959,-3.1956,-3.1962,-3.1989,-3.1961,-3.197,-3.1948,-3.1933,-3.196,-3.195,-3.1956,-3.1963,-3.1942,-3.1996,-3.1982,-3.1954,-3.1912,-3.198,-3.2003,-3.2013,-3.1879,-3.1877,-3.1876,-3.1875,0,0,-3.2044,-3.2021,-3.2031,-3.2028,-3.2016,-3.2028,-3.2052,-3.2057,-3.2065,-3.2064,-3.2082,-3.2099,-3.2071,-3.2073,-3.2051,-3.207,-3.2132,-3.2039,-3.2038,-3.2055,-3.2189,-3.221,-3.2222,-3.2112,-3.2114,-3.2116,-3.2189,0,-3.2124,-3.2163,-3.2135,-3.2179,-3.2194,-3.215,-3.217,-3.2165,-3.215,-3.216,-3.2144,-3.2156,-3.2119,-3.212,-3.2137,-3.2121,-3.2158,-3.2115,-3.2129,-3.213,-3.2131,-3.2235,-3.2258,-3.2328,-3.2198,-3.2199,-3.22,0,-3.2223,-3.2224,-3.227,-3.2252,-3.2257,-3.2276,-3.2276,-3.2287,-3.2278,-3.2266,-3.2266,-3.2238,-3.2259,-3.2218,-3.2245,-3.2217,-3.222,-3.2213,-3.2215,-3.2215,-3.2169,-3.2237,-3.2349,-3.236,-3.2215,-3.2214,-3.2213,0,-3.231,-3.2324,-3.2352,-3.2351,-3.2331,-3.2345,-3.2338,-3.2327,-3.2331,-3.2331,-3.2333,-3.2336,-3.2337,-3.234,-3.2313,-3.2285,-3.2344,-3.23,-3.2333,-3.2334,-3.2348,-3.2348,-3.2462,-3.2351,-3.2351,-3.2351,-3.2351,0,-3.2402,-3.2432,-3.2391,-3.2409,-3.2439,-3.2405,-3.2437,-3.2424,-3.2415,-3.2428,-3.2391,-3.2404,-3.2368,-3.2377,-3.2356,-3.2381,-3.2383,-3.2373,-3.2367,-3.2376,-3.2377,-3.2378,-3.2372,-3.2354,-3.2353,-3.2353,-3.2352,0,-3.2506,-3.248,-3.2508,-3.2486,-3.2481,-3.2505,-3.2485,-3.25,-3.2482,-3.25,-3.2502,-3.2474,-3.2483,-3.2455,-3.2461,-3.2446,-3.2483,-3.2469,-3.2486,-3.2481,-3.2516,-3.2513,-3.2635,-3.2648,-3.2529,-3.2531,-3.2532,0,-3.2567,-3.2588,-3.2567,-3.2573,-3.2567,-3.2578,-3.2581,-3.2547,-3.2552,-3.2542,-3.2558,-3.2563,-3.2566,-3.2582,-3.2562,-3.2564,-3.255,-3.2593,-3.2551,-3.2558,-3.255,-3.2549,-3.255,-3.2602,-3.2603,-3.2604,-3.2605,0,-3.2676,-3.2661,-3.2667,-3.2667,-3.2671,-3.267,-3.2666,-3.2673,-3.2637,-3.2644,-3.2652,-3.2654,-3.2657,-3.2663,-3.2661,-3.2652,-3.2623,-3.2618,-3.2626,-3.2636,-3.2644,-3.2639,-3.2509,-3.2616,-3.2615,-3.2614,-3.2614,-3.2613,-3.276,-3.2775,-3.2763,-3.2769,-3.2762,-3.2759,-3.2771,-3.2754,-3.276,-3.276,-3.2739,-3.2751,-3.2739,-3.2734,-3.2728,-3.2736,-3.2716,-3.2728,-3.2731,-3.2734,-3.2739,-3.2643,-3.2735,-3.2735,-3.2735,-3.2735,-3.2734,0,-3.2866,-3.2855,-3.2862,-3.2856,-3.2861,-3.2831,-3.2825,-3.2831,-3.2841,-3.2833,-3.2836,-3.2844,-3.2848,-3.2827,-3.2828,-3.2839,-3.2825,-3.284,-3.2839,-3.2837,-3.2757,-3.275,-3.2851,-3.2851,-3.2851,-3.2851,-3.2851,-3.2851,-3.2923,-3.2947,-3.293,-3.295,-3.2939,-3.295,-3.2948,-3.2944,-3.2937,-3.2947,-3.2951,-3.2936,-3.2923,-3.2922,-3.2924,-3.2918,-3.292,-3.294,-3.2929,-3.2855,-3.2843,-3.2832,-3.2825,-3.2941,-3.2941,-3.3008,-3.3008,-3.3009]}]]